Location: Cambridge (historical)
(38.6883°N, 119.0140°W)
Time: 14:21:51
(UTC+00:00)

Daily predictions for brighter satellites

Satellite Brightness Start Highest point End
(mag) Time Altitude Azimuth Time Altitude Azimuth Time Altitude Azimuth
Cosmos 44 Rocket 4.4 12:10:28 34° S 12:10:28 34° S 12:13:30 10° SSE
ERS-2 3.5 12:06:17 10° SE 12:09:39 37° ENE 12:10:47 29° NNE
Nadezhda 4 Rocket 3.8 12:04:10 10° S 12:10:16 86° W 12:16:27 10° N
CZ-4B R/B 3.6 12:07:25 10° SE 12:10:22 27° ENE 12:12:56 12° NNE
Cosmos 2082 Rocket 2.1 12:09:55 48° SSW 12:11:34 86° ESE 12:17:12 10° NNE
Cosmos 2369 3.9 12:08:19 23° NNW 12:11:55 70° ENE 12:17:31 10° SSE
Meteor 1-24 Rocket 4.1 12:09:28 10° S 12:14:59 63° E 12:20:44 10° NNE
Lacrosse 5 rocket 3.6 12:18:45 13° N 12:18:45 13° N 12:19:24 10° NNE
DELTA 2 R/B (1) 4.5 12:19:26 33° SSW 12:19:26 33° SSW 12:23:59 10° SSE
Cosmos 2180 Rocket 4.5 12:13:39 10° NNW 12:19:41 53° W 12:25:37 10° SSW
Cosmos 1892 Rocket 4.3 12:18:16 10° S 12:22:29 52° E 12:26:44 10° NNE
ALOS 2.6 12:22:23 10° NNE 12:27:03 67° E 12:31:41 10° S
Cosmos 1697 Rocket 2.6 12:31:55 28° NW 12:34:52 64° WSW 12:40:27 10° S
Abrixas rocket 3.3 12:38:21 33° NE 12:38:21 33° NE 12:40:47 10° E
ISS -1.4 12:41:10 14° N 12:41:10 14° N 12:42:20 10° NNE
COSMOS 2406 4.4 12:41:49 23° NW 12:41:49 23° NW 12:45:25 10° N
FENGYUN 3A 3.6 12:36:20 10° NNE 12:41:48 86° WNW 12:47:14 10° SSW
ARGOS Delta rocket 4.5 12:39:37 10° NNE 12:45:05 68° E 12:50:31 10° S
ATLAS CENTAUR R/B 3.1 12:42:27 10° S 12:46:00 31° ESE 12:49:26 10° NE
ATLAS 3B R/B 2.9 12:44:55 31° W 12:47:28 44° NW 12:53:48 10° NNE
ADEOS 3.4 12:43:11 10° N 12:48:24 72° WNW 12:53:35 10° SSW
Cosmos 1400 Rocket 2.7 12:46:16 10° N 12:50:12 86° E 12:54:04 10° S
Cosmos 1300 2.5 12:46:36 10° NNW 12:50:24 69° W 12:54:11 10° S
ADEOS Rocket 3.2 12:45:25 10° SSW 12:50:25 36° W 12:55:31 10° NNW
Meteor 2-5 Rocket 4.0 12:46:38 10° SSW 12:52:05 47° WNW 12:57:41 10° N
Cosmos 1428 Rocket 4.4 12:47:33 10° S 12:53:48 89° WNW 13:00:01 10° N
Aureole 3 4.1 12:51:40 10° N 12:56:14 80° E 13:02:05 10° S
Cosmos 1980 Rocket 2.1 12:52:43 10° NNW 12:58:20 79° WSW 13:03:55 10° SSE
CZ-4B R/B 3.8 12:57:49 10° N 13:01:55 65° WNW 13:05:47 10° SSW
SL-14 R/B 4.3 13:02:57 26° WNW 13:02:57 26° WNW 13:05:47 10° NNW
Cosmos 2228 3.5 12:59:24 10° NNW 13:03:28 38° W 13:07:31 10° SSW
Cosmos 1726 Rocket 3.6 12:59:19 10° NNW 13:03:40 54° W 13:08:00 10° S
Cosmos 1992 Rocket 4.2 12:59:42 10° NNW 13:04:42 48° WSW 13:09:41 10° S
Cosmos 2026 Rocket 4.0 13:00:42 10° SSW 13:07:01 67° W 13:13:22 10° N
CZ-2C R/B 3.9 13:13:24 10° NNW 13:16:07 16° WNW 13:16:07 16° WNW
Meteor PRIRODA 3.6 13:13:29 10° NNE 13:17:10 89° ESE 13:20:50 10° SSW
H-2A R/B 4.2 13:13:49 10° NNE 13:17:30 42° E 13:21:10 10° S
Meteor 2-10 Rocket 3.7 13:13:03 10° N 13:18:05 72° E 13:23:13 10° SSE
Cosmos 614 Rocket 4.0 13:13:55 10° SW 13:18:57 53° WNW 13:23:58 10° N
Cosmos 1606 Rocket 4.5 13:16:10 10° NNW 13:19:57 27° W 13:23:43 10° SSW
Cosmos 1484 Rocket 3.7 13:18:02 10° NNW 13:21:12 25° WNW 13:24:19 10° SW
Cosmos 1315 Rocket 3.2 13:19:40 10° N 13:23:48 69° E 13:27:54 10° SSE
Cosmos 1689 Rocket 1.9 13:22:22 10° S 13:25:15 66° WSW 13:28:11 10° NNW
COSMO-SKYMED 1 2.5 13:23:28 10° S 13:27:47 67° WSW 13:32:07 10° NNW
Cosmos 1833 Rocket 4.4 13:29:06 12° WNW 13:30:28 13° NW 13:33:07 10° NNW
Cosmos 2322 Rocket 3.4 13:25:50 10° N 13:31:15 44° ENE 13:36:36 10° SE
Cosmos 2278 4.2 13:26:12 10° NW 13:31:24 38° WSW 13:36:34 10° S
Uosat 12 SS-18 rocket 4.1 13:27:18 10° SSW 13:32:12 83° WNW 13:36:35 10° NNE
SJ-12 4.4 13:31:59 10° N 13:35:50 39° WNW 13:39:38 10° SW
SAR-Lupe-4 4.4 13:32:48 10° SSW 13:35:56 29° W 13:39:07 10° NW
Cosmos 1455 2.4 13:33:58 10° N 13:37:50 79° E 13:41:42 10° S
H-2A R/B 3.1 13:36:37 10° NNE 13:40:54 62° E 13:45:00 10° S
Cosmos 1023 Rocket 4.4 13:37:16 10° SSW 13:42:17 61° WNW 13:47:20 10° NNE
CZ-4B R/B 3.2 13:40:35 10° SW 13:42:37 15° W 13:44:39 10° WNW
ERS-2 4.0 13:41:49 10° WSW 13:43:19 12° W 13:44:49 10° WNW
Meteor 1-31 Rocket 4.2 13:43:35 10° NNW 13:46:22 19° WNW 13:49:08 10° WSW
CREW DRAGON DEMO-1 DEB 3.3 13:49:00 10° NW 13:51:58 54° NE 13:54:54 10° ESE
Cosmos 2292 Rocket 2.9 13:49:15 10° SSW 13:52:17 57° W 13:55:56 10° N
Cosmos 1703 3.2 13:48:47 10° S 13:52:39 80° W 13:56:33 10° N
SJ-7 4.3 13:49:29 10° N 13:53:28 76° WNW 13:57:25 10° SSW
Cosmos 1758 Rocket 4.1 13:49:51 10° S 13:54:18 68° E 13:58:46 10° NNE
Cosmos 1190 Rocket 4.2 13:49:29 10° SW 13:54:34 50° WNW 13:59:39 10° N
Cosmos 2082 Rocket 3.8 13:53:27 10° W 13:56:24 14° NW 13:59:22 10° NNW
